TUA101 UTAA-UTAT

Flight info

Callsign TUA101
Flight time 0h 46m
Altitude 23000
Route ASB B359 DSH
Aircraft B738/M-SDE2E3FGHIRWXY/LB1

Departure

Time 2026-04-22 11:41
Airport Ashgabat International Airport (UTAA)

Arrival

Time 2026-04-22 12:28
Airport Dashoguz International Airport (UTAT)
Time Latitude Longitude Altitude Speed Heading
2026-04-22 11:25 37.98306 58.36733 677 ft 0 kts 30°
2026-04-22 11:32 37.98303 58.36730 677 ft 3 kts 30°
2026-04-22 11:32 37.98279 58.36714 675 ft 4 kts 28°
2026-04-22 11:33 37.98255 58.36697 675 ft 4 kts 28°
2026-04-22 11:33 37.98236 58.36683 677 ft 4 kts 24°
2026-04-22 11:33 37.98213 58.36679 674 ft 4 kts 325°
2026-04-22 11:33 37.98197 58.36704 677 ft 4 kts 297°
2026-04-22 11:34 37.98194 58.36712 675 ft 1 kts 298°
2026-04-22 11:35 37.98226 58.36640 675 ft 18 kts 299°
2026-04-22 11:35 37.98287 58.36501 677 ft 18 kts 300°
2026-04-22 11:35 37.98347 58.36369 677 ft 17 kts 300°
2026-04-22 11:36 37.98411 58.36228 675 ft 19 kts 299°
2026-04-22 11:36 37.98430 58.36098 675 ft 15 kts 231°
2026-04-22 11:36 37.98340 58.36025 677 ft 17 kts 210°
2026-04-22 11:36 37.98228 58.35931 677 ft 20 kts 238°
2026-04-22 11:37 37.98262 58.35775 676 ft 19 kts 300°
2026-04-22 11:37 37.98332 58.35621 676 ft 26 kts 300°
2026-04-22 11:37 37.98427 58.35404 675 ft 28 kts 298°
2026-04-22 11:37 37.98516 58.35200 677 ft 25 kts 301°
2026-04-22 11:38 37.98597 58.35020 677 ft 23 kts 300°
2026-04-22 11:38 37.98674 58.34848 676 ft 22 kts 299°
2026-04-22 11:38 37.98826 58.34507 676 ft 22 kts 299°
2026-04-22 11:39 37.98901 58.34340 674 ft 22 kts 299°
2026-04-22 11:39 37.98975 58.34174 675 ft 21 kts 299°
2026-04-22 11:39 37.99045 58.34016 675 ft 20 kts 299°
2026-04-22 11:39 37.99114 58.33861 677 ft 20 kts 300°
2026-04-22 11:40 37.99150 58.33713 676 ft 17 kts 237°
2026-04-22 11:40 37.99053 58.33633 676 ft 16 kts 210°
2026-04-22 11:40 37.98972 58.33637 676 ft 13 kts 120°
2026-04-22 11:40 37.98879 58.33845 673 ft 57 kts 119°
2026-04-22 11:41 37.98578 58.34521 673 ft 117 kts 120°
2026-04-22 11:41 37.98093 58.35593 777 ft 156 kts 121°
2026-04-22 11:41 37.97546 58.36795 1399 ft 161 kts 118°
2026-04-22 11:41 37.97071 58.38138 1962 ft 171 kts 101°
2026-04-22 11:42 37.97070 58.39643 2566 ft 178 kts 75°
2026-04-22 11:42 37.97670 58.41127 2847 ft 204 kts 46°
2026-04-22 11:42 37.98921 58.42098 3044 ft 224 kts 15°
2026-04-22 11:42 38.00504 58.42523 3327 ft 242 kts 10°
2026-04-22 11:43 38.02228 58.42952 3674 ft 260 kts 10°
2026-04-22 11:43 38.04024 58.43409 4441 ft 264 kts 10°
2026-04-22 11:43 38.05833 58.43879 5257 ft 267 kts 10°
2026-04-22 11:43 38.07663 58.44364 5986 ft 272 kts 10°
2026-04-22 11:44 38.09533 58.44869 6710 ft 277 kts 10°
2026-04-22 11:44 38.11433 58.45387 7457 ft 281 kts 10°
2026-04-22 11:44 38.13352 58.45915 8179 ft 284 kts 10°
2026-04-22 11:44 38.15267 58.46446 8903 ft 288 kts 11°
2026-04-22 11:45 38.17236 58.46995 9640 ft 292 kts 11°
2026-04-22 11:45 38.19237 58.47554 10284 ft 299 kts 11°
2026-04-22 11:45 38.21349 58.48143 10475 ft 323 kts 11°
2026-04-22 11:45 38.23606 58.48774 10824 ft 339 kts 10°
2026-04-22 11:46 38.25931 58.49428 11432 ft 345 kts 10°
2026-04-22 11:46 38.28295 58.50095 12156 ft 349 kts 10°
2026-04-22 11:46 38.30683 58.50769 12865 ft 354 kts
2026-04-22 11:46 38.33104 58.51453 13591 ft 359 kts
2026-04-22 11:47 38.35562 58.52147 14251 ft 364 kts
2026-04-22 11:47 38.38028 58.52844 14921 ft 369 kts
2026-04-22 11:47 38.40547 58.53556 15616 ft 373 kts
2026-04-22 11:47 38.43101 58.54279 16299 ft 378 kts
2026-04-22 11:48 38.45686 58.55011 16946 ft 383 kts
2026-04-22 11:48 38.48306 58.55754 17631 ft 388 kts
2026-04-22 11:48 38.50962 58.56507 18285 ft 393 kts
2026-04-22 11:48 38.53649 58.57270 18843 ft 398 kts
2026-04-22 11:49 38.56373 58.58044 19384 ft 404 kts
2026-04-22 11:49 38.59125 58.58827 19961 ft 408 kts
2026-04-22 11:49 38.61913 58.59620 20539 ft 412 kts
2026-04-22 11:49 38.64716 58.60419 21193 ft 413 kts
2026-04-22 11:50 38.67523 58.61220 21893 ft 413 kts
2026-04-22 11:50 38.70326 58.62021 22618 ft 413 kts
2026-04-22 11:50 38.73142 58.62825 22941 ft 415 kts
2026-04-22 11:50 38.75955 58.63628 22934 ft 414 kts
2026-04-22 11:51 38.78762 58.64474 22950 ft 415 kts 12°
2026-04-22 11:51 38.81509 58.65501 22956 ft 417 kts 14°
2026-04-22 11:51 38.84310 58.66650 22957 ft 417 kts 15°
2026-04-22 11:51 38.87045 58.67791 22958 ft 418 kts 15°
2026-04-22 11:52 38.89818 58.68936 22952 ft 418 kts 15°
2026-04-22 11:52 38.92592 58.70066 22948 ft 418 kts 15°
2026-04-22 11:52 38.95370 58.71184 22944 ft 418 kts 14°
2026-04-22 11:52 38.98148 58.72296 22955 ft 418 kts 14°
2026-04-22 11:53 39.00924 58.73405 22948 ft 417 kts 14°
2026-04-22 11:53 39.03693 58.74513 22942 ft 417 kts 14°
2026-04-22 11:53 39.06459 58.75621 22941 ft 416 kts 14°
2026-04-22 11:53 39.09221 58.76718 22941 ft 415 kts 14°
2026-04-22 11:54 39.11047 58.77432 22939 ft 415 kts 14°
2026-04-22 11:54 39.13816 58.78507 22939 ft 414 kts 14°
2026-04-22 11:54 39.16576 58.79577 22940 ft 414 kts 14°
2026-04-22 11:54 39.20228 58.80996 22951 ft 414 kts 14°
2026-04-22 11:55 39.22088 58.81720 22949 ft 414 kts 14°
2026-04-22 11:55 39.25743 58.83146 22945 ft 414 kts 14°
2026-04-22 11:55 39.27608 58.83875 22943 ft 415 kts 14°
2026-04-22 11:55 39.31265 58.85306 22939 ft 415 kts 14°
2026-04-22 11:56 39.33099 58.86024 22938 ft 415 kts 14°
2026-04-22 11:56 39.35898 58.87122 22937 ft 415 kts 14°
2026-04-22 11:56 39.38634 58.88196 22936 ft 416 kts 14°
2026-04-22 11:56 39.41406 58.89284 22937 ft 416 kts 14°
2026-04-22 11:57 39.44175 58.90373 22952 ft 416 kts 14°
2026-04-22 11:57 39.46943 58.91462 22944 ft 416 kts 14°
2026-04-22 11:57 39.49706 58.92550 22940 ft 416 kts 14°
2026-04-22 11:57 39.52475 58.93641 22939 ft 415 kts 14°
2026-04-22 11:58 39.55237 58.94730 22934 ft 415 kts 14°
2026-04-22 11:58 39.58002 58.95822 22935 ft 415 kts 14°
2026-04-22 11:58 39.60761 58.96911 22936 ft 414 kts 14°
2026-04-22 11:58 39.63517 58.98001 22936 ft 414 kts 14°
2026-04-22 11:59 39.66276 58.99093 22939 ft 414 kts 14°
2026-04-22 11:59 39.69028 59.00183 22933 ft 414 kts 14°
2026-04-22 11:59 39.71782 59.01274 22934 ft 414 kts 14°
2026-04-22 11:59 39.74533 59.02366 22935 ft 414 kts 14°
2026-04-22 12:00 39.77253 59.03446 22929 ft 414 kts 14°
2026-04-22 12:00 39.80008 59.04541 22926 ft 414 kts 14°
2026-04-22 12:00 39.82767 59.05638 22932 ft 415 kts 14°
2026-04-22 12:00 39.85529 59.06737 22938 ft 415 kts 14°
2026-04-22 12:01 39.88298 59.07840 22940 ft 416 kts 14°
2026-04-22 12:01 39.91071 59.08944 22932 ft 416 kts 14°
2026-04-22 12:01 39.93845 59.10039 22930 ft 417 kts 14°
2026-04-22 12:01 39.96622 59.11131 22926 ft 417 kts 14°
2026-04-22 12:02 39.99399 59.12222 22927 ft 417 kts 14°
2026-04-22 12:02 40.02175 59.13314 22929 ft 417 kts 14°
2026-04-22 12:02 40.04951 59.14408 22920 ft 417 kts 14°
2026-04-22 12:02 40.07726 59.15503 22934 ft 416 kts 14°
2026-04-22 12:03 40.10502 59.16600 22925 ft 416 kts 14°
2026-04-22 12:03 40.13240 59.17683 22919 ft 416 kts 14°
2026-04-22 12:03 40.16040 59.18792 22912 ft 415 kts 14°
2026-04-22 12:03 40.18772 59.19875 22910 ft 415 kts 14°
2026-04-22 12:04 40.21532 59.20969 22909 ft 414 kts 14°
2026-04-22 12:04 40.24287 59.22063 22912 ft 414 kts 14°
2026-04-22 12:04 40.27041 59.23157 22910 ft 413 kts 14°
2026-04-22 12:04 40.29793 59.24251 22923 ft 413 kts 14°
2026-04-22 12:05 40.32542 59.25346 22915 ft 413 kts 14°
2026-04-22 12:05 40.35269 59.26433 22871 ft 405 kts 14°
2026-04-22 12:05 40.37950 59.27503 22567 ft 400 kts 14°
2026-04-22 12:05 40.40598 59.28560 22231 ft 397 kts 14°
2026-04-22 12:06 40.43223 59.29615 21910 ft 392 kts 14°
2026-04-22 12:06 40.45823 59.30663 21525 ft 389 kts 14°
2026-04-22 12:06 40.48399 59.31704 21147 ft 386 kts 14°
2026-04-22 12:06 40.50956 59.32740 20782 ft 383 kts 14°
2026-04-22 12:07 40.53495 59.33769 20417 ft 381 kts 14°
2026-04-22 12:07 40.56018 59.34788 20052 ft 378 kts 14°
2026-04-22 12:07 40.58524 59.35801 19692 ft 376 kts 14°
2026-04-22 12:07 40.61010 59.36807 19415 ft 371 kts 14°
2026-04-22 12:08 40.63473 59.37805 19082 ft 370 kts 14°
2026-04-22 12:08 40.65903 59.38790 18749 ft 370 kts 14°
2026-04-22 12:08 40.68359 59.39786 18396 ft 368 kts 14°
2026-04-22 12:08 40.70800 59.40778 18023 ft 366 kts 14°
2026-04-22 12:09 40.73228 59.41765 17632 ft 364 kts 13°
2026-04-22 12:09 40.75640 59.42747 17245 ft 361 kts 13°
2026-04-22 12:09 40.78033 59.43722 16881 ft 358 kts 13°
2026-04-22 12:09 40.80416 59.44693 16520 ft 355 kts 13°
2026-04-22 12:10 40.82766 59.45652 16163 ft 352 kts 13°
2026-04-22 12:10 40.85101 59.46605 15823 ft 350 kts 13°
2026-04-22 12:10 40.87414 59.47549 15479 ft 347 kts 13°
2026-04-22 12:10 40.89711 59.48488 15128 ft 345 kts 14°
2026-04-22 12:11 40.91997 59.49423 14789 ft 342 kts 14°
2026-04-22 12:11 40.94267 59.50352 14445 ft 340 kts 14°
2026-04-22 12:11 40.96520 59.51274 14094 ft 339 kts 14°
2026-04-22 12:11 40.98723 59.52357 13835 ft 336 kts 24°
2026-04-22 12:12 41.00741 59.53863 13651 ft 333 kts 28°
2026-04-22 12:12 41.02704 59.55442 13313 ft 335 kts 29°
2026-04-22 12:12 41.04725 59.57090 12969 ft 337 kts 29°
2026-04-22 12:12 41.06699 59.58692 12614 ft 336 kts 29°
2026-04-22 12:13 41.08692 59.60298 12257 ft 335 kts 28°
2026-04-22 12:13 41.10681 59.61887 11906 ft 333 kts 28°
2026-04-22 12:13 41.12665 59.63466 11564 ft 331 kts 28°
2026-04-22 12:13 41.14637 59.65029 11213 ft 327 kts 28°
2026-04-22 12:14 41.16569 59.66560 10863 ft 319 kts 28°
2026-04-22 12:14 41.18454 59.68052 10532 ft 312 kts 28°
2026-04-22 12:14 41.20293 59.69508 10293 ft 301 kts 28°
2026-04-22 12:14 41.22059 59.70908 10145 ft 288 kts 28°
2026-04-22 12:15 41.23728 59.72231 10021 ft 278 kts 28°
2026-04-22 12:15 41.25369 59.73530 9822 ft 273 kts 27°
2026-04-22 12:15 41.26996 59.74818 9563 ft 271 kts 27°
2026-04-22 12:15 41.28606 59.76092 9284 ft 267 kts 28°
2026-04-22 12:16 41.30194 59.77351 8981 ft 264 kts 27°
2026-04-22 12:16 41.31760 59.78594 8720 ft 260 kts 27°
2026-04-22 12:16 41.33301 59.79816 8458 ft 257 kts 27°
2026-04-22 12:16 41.34834 59.81034 8204 ft 255 kts 28°
2026-04-22 12:17 41.36363 59.82248 7962 ft 256 kts 28°
2026-04-22 12:17 41.37904 59.83472 7710 ft 259 kts 28°
2026-04-22 12:17 41.39449 59.84701 7448 ft 258 kts 28°
2026-04-22 12:17 41.40987 59.85927 7209 ft 257 kts 28°
2026-04-22 12:18 41.42528 59.87155 6940 ft 258 kts 28°
2026-04-22 12:18 41.44063 59.88378 6682 ft 256 kts 28°
2026-04-22 12:18 41.45589 59.89595 6421 ft 254 kts 28°
2026-04-22 12:18 41.47103 59.90803 6168 ft 252 kts 28°
2026-04-22 12:19 41.48603 59.92001 5908 ft 251 kts 28°
2026-04-22 12:19 41.50082 59.93182 5660 ft 251 kts 28°
2026-04-22 12:19 41.51586 59.94383 5394 ft 252 kts 28°
2026-04-22 12:19 41.53087 59.95584 5140 ft 251 kts 28°
2026-04-22 12:20 41.54578 59.96778 4898 ft 250 kts 27°
2026-04-22 12:20 41.56065 59.97969 4648 ft 248 kts 28°
2026-04-22 12:20 41.57542 59.99153 4398 ft 248 kts 28°
2026-04-22 12:20 41.59018 60.00336 4163 ft 246 kts 28°
2026-04-22 12:21 41.60467 60.01499 4061 ft 240 kts 28°
2026-04-22 12:21 41.61865 60.02622 3945 ft 229 kts 27°
2026-04-22 12:21 41.63210 60.03702 3840 ft 223 kts 28°
2026-04-22 12:21 41.64526 60.04758 3770 ft 220 kts 28°
2026-04-22 12:22 41.65851 60.05820 3693 ft 224 kts 28°
2026-04-22 12:22 41.67201 60.06905 3479 ft 228 kts 27°
2026-04-22 12:22 41.68590 60.07868 3233 ft 220 kts 10°
2026-04-22 12:22 41.69988 60.07677 3027 ft 194 kts 327°
2026-04-22 12:23 41.71090 60.06773 2843 ft 181 kts 325°
2026-04-22 12:23 41.72167 60.05915 2650 ft 180 kts 326°
2026-04-22 12:23 41.73258 60.05057 2460 ft 183 kts 326°
2026-04-22 12:23 41.74358 60.04199 2258 ft 183 kts 326°
2026-04-22 12:24 41.75412 60.03275 2054 ft 178 kts 310°
2026-04-22 12:24 41.75832 60.01819 2011 ft 174 kts 272°
2026-04-22 12:24 41.75911 60.00189 1994 ft 177 kts 274°
2026-04-22 12:24 41.75957 59.98557 1992 ft 173 kts 271°
2026-04-22 12:25 41.75966 59.96953 1914 ft 169 kts 270°
2026-04-22 12:25 41.75967 59.95464 1675 ft 150 kts 270°
2026-04-22 12:25 41.75969 59.94155 1538 ft 134 kts 271°
2026-04-22 12:25 41.75971 59.92885 1349 ft 135 kts 268°
2026-04-22 12:26 41.75947 59.91645 1165 ft 131 kts 266°
2026-04-22 12:26 41.75949 59.90443 1018 ft 129 kts 272°
2026-04-22 12:26 41.75994 59.89233 815 ft 128 kts 270°
2026-04-22 12:26 41.75986 59.88083 671 ft 121 kts 268°
2026-04-22 12:27 41.75961 59.86946 528 ft 122 kts 272°
2026-04-22 12:27 41.75988 59.85785 364 ft 124 kts 268°
2026-04-22 12:27 41.75987 59.84726 284 ft 102 kts 267°
2026-04-22 12:27 41.75987 59.83979 283 ft 60 kts 270°
2026-04-22 12:28 41.75988 59.83513 285 ft 44 kts 270°
2026-04-22 12:28 41.75990 59.83170 284 ft 34 kts 270°
2026-04-22 12:28 41.75990 59.82866 282 ft 31 kts 271°
2026-04-22 12:28 41.75991 59.82589 281 ft 29 kts 270°
2026-04-22 12:29 41.76010 59.82297 282 ft 32 kts 284°
2026-04-22 12:29 41.76097 59.82070 284 ft 18 kts 326°
2026-04-22 12:29 41.76162 59.82160 283 ft 17 kts 90°
2026-04-22 12:29 41.76162 59.82345 283 ft 26 kts 90°
2026-04-22 12:30 41.76161 59.82845 283 ft 25 kts 90°
2026-04-22 12:30 41.76160 59.83056 283 ft 21 kts 90°
2026-04-22 12:30 41.76210 59.83194 285 ft 18 kts
2026-04-22 12:31 41.76301 59.83194 283 ft 11 kts 360°
2026-04-22 12:31 41.76372 59.83194 283 ft 9 kts
2026-04-22 12:31 41.76399 59.83194 283 ft 3 kts
2026-04-22 12:31 41.76420 59.83194 283 ft 3 kts 359°
2026-04-22 12:32 41.76421 59.83194 283 ft 0 kts 359°